Echostar IX

operational
NORAD ID: 27854 Int'l Des: 2003-034 Owner: ECHO Country: US
HEOCIRCULAR

Über Echostar IX

Beschreibung wird geladen...

Live-Position

3D-Globus wird geladen...

Nächste Überflüge

Höhenverlauf

Altitude vs Time

uPlot chart will show altitude changes over time

Zweizeiliger Elementsatz

1 27854U 03034A 26063.31919906 -.00000261 00000-0 00000+0 0 9990
2 27854 2.9303 80.8892 0003835 206.0623 122.1310 0.98956250 82653
Epoch: 4. März 2026 • Age: 19 hours

Aktueller Status

Höhe 36151.5 km
Geschwindigkeit 3.06 km/s
Subsatellitenpunkt 1.79°N, 129.78°E
Startdatum 8. Aug. 2003
Alter 22.5 years
Typ other

Technische Details

Klassifizierung Payload
Masse 4737.00 kg
Trockenmasse 2000.00 kg
Gesamtmasse 4737.00 kg
Länge 5.60 m
Durchmesser 2.80 m
Spannweite 31.00 m
Form Box + 2 Pan
Hersteller LOR
Bus-Typ SSL-1300
Phasenstatus In Orbit
Besitzer/Staat ECHO/US

Große Konstellationen

Loading constellations...